This is the latest recevied weather packets stored in our database for station/object K4AVM-13. If no packets are shown the sender has not sent any weather packets the latest 10 day(s).
| Time | Temp. | Humidity | Pressure | Rain* | Wind** | Luminosity | Snow |
|---|---|---|---|---|---|---|---|
| 1778025779 | 24.44° C | 45% | 1013.4 hPa | 0 mm | - | 3 W/m² | - |
| 1778025475 | 24.44° C | 45% | 1013.4 hPa | 0 mm | - | 4 W/m² | - |
| 1778025173 | 25° C | 44% | 1013.3 hPa | 0 mm | - | 6 W/m² | - |
| 1778024870 | 25° C | 44% | 1013.4 hPa | 0 mm | - | 10 W/m² | - |
| 1778024567 | 25° C | 44% | 1013.3 hPa | 0 mm | - | 15 W/m² | - |
| 1778024264 | 25° C | 44% | 1013.1 hPa | 0 mm | - | 17 W/m² | - |
| 1778023962 | 25° C | 44% | 1013.3 hPa | 0 mm | - | 17 W/m² | - |
| 1778023658 | 25° C | 44% | 1013.4 hPa | 0 mm | - | 19 W/m² | - |
| 1778023356 | 25° C | 44% | 1013.2 hPa | 0 mm | - | 21 W/m² | - |
| 1778023052 | 25° C | 44% | 1013.2 hPa | 0 mm | - | 24 W/m² | - |
| 1778022752 | 25.56° C | 44% | 1013.3 hPa | 0 mm | - | 27 W/m² | - |
| 1778022450 | 25.56° C | 43% | 1013.1 hPa | 0 mm | - | 30 W/m² | - |
| 1778022146 | 25.56° C | 42% | 1013.3 hPa | 0 mm | - | 34 W/m² | - |
| 1778021842 | 26.11° C | 42% | 1013.3 hPa | 0 mm | - | 36 W/m² | - |
| 1778021540 | 26.11° C | 41% | 1013.1 hPa | 0 mm | - | 37 W/m² | - |
| 1778021235 | 26.11° C | 41% | 1013.1 hPa | 0 mm | - | 37 W/m² | - |
| 1778020933 | 26.11° C | 41% | 1013.1 hPa | 0 mm | - | 40 W/m² | - |
| 1778020630 | 26.11° C | 40% | 1013.2 hPa | 0 mm | - | 51 W/m² | - |
| 1778020326 | 26.67° C | 40% | 1013.3 hPa | 0 mm | - | 57 W/m² | - |
| 1778020022 | 26.67° C | 40% | 1013.2 hPa | 0 mm | - | 60 W/m² | - |
| 1778019718 | 26.67° C | 39% | 1013 hPa | 0 mm | - | 66 W/m² | - |
| 1778019416 | 26.67° C | 38% | 1013.1 hPa | 0 mm | - | 69 W/m² | - |
| 1778019112 | 27.22° C | 38% | 1013.1 hPa | 0 mm | - | 116 W/m² | - |
| 1778018809 | 27.22° C | 38% | 1013 hPa | 0 mm | - | 104 W/m² | - |
| 1778018507 | 27.22° C | 37% | 1012.9 hPa | 0 mm | - | 97 W/m² | - |
* Rain latest hour (hover to see other rain measurements)
** Current wind speed in m/s (hover to see current wind gust speed)